User: anonymous   Login
Location: Langangen
(59.1000°N, 9.8000°E)
Time: 06:27:42
(UTC+01:00)
Language:

Iridium 60 - Orbit

View from above orbital plane
View from above orbital plane
View from above satellite
View from above satellite

Ground track
Ground track

The orbit data is extracted from the following two-line orbital elements,

1 25276U 98019E   14303.47001144  .00000381  00000-0  12890-3 0   267
2 25276 086.3946 328.6086 0002227 107.3559 252.7880 14.34218653868366
Epoch (UTC): 30 October 2014 11:16:48
Eccentricity: 0.0002227
inclination: 86.3946°
perigee height: 776 km
apogee height: 779 km
right ascension of ascending node: 328.6086°
argument of perigee: 107.3559°
revolutions per day: 14.34218653
mean anomaly at epoch: 252.7880°
orbit number at epoch: 86836

The dashed part of the orbit path shows where the satellite is in the earth's shadow,  

DLR